Location: Unspecified
(0.0000°N, 0.0000°E)
Time: 03:29:44
(UTC+00:00)

BlueWalker 3 - Pass Details

Date: 15 July 2024
Orbit: 480 x 491 km, 53.2° (Epoch: 24 July)

Event Time Altitude Azimuth Distance (km) Brightness Sun altitude
Rises 20:07:29 0° 334° (NNW) 2,516 6.2 -28.1°
Reaches altitude 10° 20:09:41 10° 340° (NNW) 1,640 5.0 -28.6°
Enters shadow 20:10:31 16° 344° (NNW) 1,317 4.4 -28.8°
